SINAH 1

Satellite information

Favourite Embed

Satellite Type and Status

PAYLOADIN ORBIT

Key statistics

Satellite SINAH 1 at a glance.

Uptime

7251

Days in orbit

Revolutions

≈ 14.6

Per day

Orbit

SSO

Sun Synchronous Orbit

Inclination

98.2

Latest

Satellite identification and parameters

Extended collection of information and parameters for SINAH 1.

Object identification

Identified? True

Debris? False

Object name: SINAH 1

International designator: 2005-043D

Object number (NORAD): 28893

Object ID (CCSDS): 28893

Country: IRAN (IRAN)

Current information (Y/N): Y

RCS size: MEDIUM

Orbital parameters

Period: 98.374 minutes

Inclination: 98.2477 deg

SMA: 7059.086 km

Apoapsis: 692.109 km

Periapsis: 669.794 km

RAAN: 14.3053 deg

Eccentricy: 0.00158055

Argument of periapsis: 95.8933 deg

Mean anomaly: 264.4071 deg

Mean motion: 14.63794178 rev/day

Mean motion (dot): 0.00001009 rev/day2

B* drag term: 0.00020243297 1/REarth

Two-line elements (TLE)

Creation date: Sept. 3, 2025, 2:21 a.m.

Reference frame: TEME

Reference center: EARTH

Epoch: Sept. 2, 2025, 10:20 p.m. UTC

TLE line 0: 0 SINAH 1

TLE line 1: 1 28893U 05043D 25245.93070325 .00001009 00000-0 20243-3 0 9993

TLE line 2: 2 28893 98.2477 14.3053 0015805 95.8933 264.4071 14.63794178 58491

Live tracking on map

Real-time ground track for satellite SINAH 1.

In-orbit conjunctions

A list of the most updated potential collisions computed for object SINAH 1.

Target Orbit TCA Probability of collision Miss distance Type
COSMOS 2251 DEB LEO 2025-01-21 18:10:18 0.0001650263 823.0 (m) DEBRIS
AUREOLE 2 LEO 2024-11-18 01:31:39 0.0001416007 279.0 (m) PAYLOAD
CZ-2C DEB SSO 2024-11-14 12:32:12 0.0005501928 507.0 (m) DEBRIS
COSMOS 1678 DEB * LEO 2024-10-23 06:56:06 0.003185198 35.0 (m) DEBRIS
IRIDIUM 33 DEB LEO 2024-09-25 06:47:54 0.0001213065 804.0 (m) DEBRIS

Associated space launch

Civilian surveillance satellite.

SINAH 1 was lifted into orbit during the mission ‘Kosmos-3M | Beijing-1’, on board a Kosmos-3M space rocket.

The launch took place on Oct. 27, 2005, 6:52 a.m. from 132/1 (132L).

For more information about the launch, click the button.

Launch to space Kosmos-3M | Beijing-1
Kosmos-3M | Beijing-1

Agency: N/A

Status: Launch Successful

Launch date: Oct. 27, 2005, 6:52 a.m. UTC

Rocket: Kosmos-3M

Launch pad: 132/1 (132L)

Location: Plesetsk Cosmodrome, Russian Federation

...

Latest news about this satellite

There are no fresh news available about this satellite. Check back as we update our databases every day.


Newsletter sign-up

Weekly statistics, charts and insights to help you stay on top of the space industry.